Weather History for Stillwater, OK

Change the Weather History Date:

Monday, January 7, 2013

  Actual Average Record
Temperature  
Mean Temperature 38 °F -  
Max Temperature 53 °F 45 °F 78 °F (2006)
Min Temperature 23 °F 24 °F 5 °F (2014)
Degree Days  
Heating Degree Days 27    
Moisture  
Dew Point 23 °F    
Average Humidity 59    
Maximum Humidity 78    
Minimum Humidity 30    
Precipitation  
Precipitation 0.00 in - - ()
Sea Level Pressure  
Sea Level Pressure 30.21 in    
Wind  
Wind Speed 6 mph (SSE)    
Max Wind Speed 17 mph    
Max Gust Speed 21 mph    
Visibility 10 miles    
Events      
Averages and records for this station are not official NWS values.
T = Trace of Precipitation, MM = Missing Value Source: NWS Daily Summary

Daily Weather History Graph

Daily Weather History Graph

Search for Another Location

Airport:

Trip Planner

Search our weather history database for the weather conditions in past years. The results will help you decide how hot, cold, wet, or windy it might be!

Date:

Astronomy

Jan. 07, 2013 Rise Set
Actual Time 7:39 AM CST 5:30 PM CST
Civil Twilight 7:11 AM CST 5:58 PM CST
Nautical Twilight 6:39 AM CST 6:30 PM CST
Astronomical Twilight 6:08 AM CST 7:01 PM CST
Moon 3:07 AM CST (1/7) 1:40 PM CST (1/7)
Length of Visible Light 10h 46m
Length of Day
9h 50m
Waning Crescent, 22% of the Moon is Illuminated
Jan 7
Waning Crescent
Jan 11
New
Jan 18
First Quarter
Jan 26
Full
Feb 3
Last Quarter

Hourly Weather History & Observations

Time (CST) Temp. Windchill Dew Point Humidity Pressure Visibility Wind Dir Wind Speed Gust Speed Precip Events Conditions
12:53 AM 30.0 °F 26.5 °F 19.9 °F 66% 30.32 in 10.0 mi SSE 3.5 mph - N/A   Clear
1:53 AM 28.0 °F 22.8 °F 19.9 °F 72% 30.31 in 10.0 mi SE 4.6 mph - N/A   Clear
2:53 AM 28.0 °F 24.2 °F 19.0 °F 69% 30.30 in 10.0 mi SE 3.5 mph - N/A   Clear
3:53 AM 24.1 °F - 18.0 °F 77% 30.29 in 10.0 mi Calm Calm - N/A   Clear
4:53 AM 23.0 °F 17.0 °F 17.1 °F 78% 30.28 in 10.0 mi SE 4.6 mph - N/A   Clear
5:53 AM 24.1 °F - 17.1 °F 75% 30.28 in 10.0 mi Calm Calm - N/A   Clear
6:53 AM 24.1 °F - 18.0 °F 77% 30.30 in 10.0 mi Calm Calm - N/A   Clear
7:53 AM 26.1 °F 16.8 °F 19.0 °F 75% 30.29 in 10.0 mi South 9.2 mph - N/A   Clear
8:53 AM 34.0 °F 26.6 °F 24.1 °F 67% 30.29 in 10.0 mi South 9.2 mph - N/A   Clear
9:53 AM 37.9 °F 31.5 °F 24.1 °F 57% 30.30 in 10.0 mi South 9.2 mph - N/A   Clear
10:53 AM 43.0 °F 35.7 °F 23.0 °F 45% 30.28 in 10.0 mi South 15.0 mph - N/A   Clear
11:53 AM 48.0 °F - 23.0 °F 37% 30.23 in 10.0 mi SSW 17.3 mph - N/A   Clear
1:53 PM 53.1 °F - 21.9 °F 30% 30.15 in 10.0 mi South 17.3 mph 20.7 mph N/A   Clear
2:53 PM 53.1 °F - 21.9 °F 30% 30.12 in 10.0 mi South 12.7 mph - N/A   Clear
3:53 PM 52.0 °F - 21.9 °F 31% 30.13 in 10.0 mi South 11.5 mph - N/A   Clear
5:53 PM 42.1 °F 39.2 °F 23.0 °F 47% 30.14 in 10.0 mi SE 4.6 mph - N/A   Clear
6:53 PM 41.0 °F 35.8 °F 25.0 °F 53% 30.13 in 10.0 mi SSE 8.1 mph - N/A   Clear
7:53 PM 42.1 °F 37.1 °F 27.0 °F 55% 30.11 in 10.0 mi South 8.1 mph - N/A   Clear
8:53 PM 37.9 °F 33.5 °F 26.1 °F 62% 30.11 in 10.0 mi SSE 5.8 mph - N/A   Clear
9:53 PM 39.9 °F 33.4 °F 28.0 °F 63% 30.09 in 10.0 mi South 10.4 mph - N/A   Clear
10:53 PM 39.9 °F 33.4 °F 30.0 °F 68% 30.09 in 10.0 mi South 10.4 mph - N/A   Clear
11:53 PM 39.0 °F 32.3 °F 30.0 °F 70% 30.08 in 10.0 mi SSE 10.4 mph - N/A   Clear